SXIAC LGIR-LGST

Flight info

Callsign SXIAC
Flight time 0h 27m
Altitude 1500
Route PAXIMADI ABEAMAGIOS PSIRAISLAND
Aircraft BE9L/L-SD/C

Departure

Time 2026-04-15 12:21
Airport Heraklion International Nikos Kazantzakis Airport (LGIR)

Arrival

Time 2026-04-15 12:49
Airport Sitia Airport (LGST)
Time Latitude Longitude Altitude Speed Heading
2026-04-15 12:10 35.33666 25.18846 93 ft 0 kts 150°
2026-04-15 12:16 35.33664 25.18847 93 ft 3 kts 150°
2026-04-15 12:17 35.33625 25.18804 93 ft 5 kts 295°
2026-04-15 12:17 35.33693 25.18840 93 ft 17 kts 33°
2026-04-15 12:17 35.33751 25.18883 93 ft 0 kts 33°
2026-04-15 12:18 35.33752 25.18883 93 ft 0 kts 33°
2026-04-15 12:18 35.33783 25.18907 93 ft 13 kts 30°
2026-04-15 12:19 35.33840 25.18979 93 ft 20 kts 58°
2026-04-15 12:19 35.33893 25.19041 93 ft 8 kts 354°
2026-04-15 12:19 35.33905 25.19009 93 ft 0 kts 275°
2026-04-15 12:20 35.33907 25.18987 93 ft 13 kts 275°
2026-04-15 12:20 35.33927 25.18698 93 ft 57 kts 274°
2026-04-15 12:20 35.33982 25.17936 93 ft 112 kts 276°
2026-04-15 12:20 35.34073 25.16869 337 ft 123 kts 281°
2026-04-15 12:21 35.34304 25.15768 692 ft 135 kts 279°
2026-04-15 12:21 35.34769 25.14627 938 ft 157 kts 321°
2026-04-15 12:21 35.35881 25.14140 1000 ft 178 kts
2026-04-15 12:21 35.37049 25.14695 989 ft 178 kts 35°
2026-04-15 12:22 35.37824 25.15749 946 ft 158 kts 64°
2026-04-15 12:22 35.38331 25.16899 946 ft 145 kts 57°
2026-04-15 12:22 35.38921 25.17890 946 ft 134 kts 55°
2026-04-15 12:22 35.39460 25.18796 944 ft 126 kts 55°
2026-04-15 12:23 35.39970 25.19646 941 ft 118 kts 55°
2026-04-15 12:23 35.40452 25.20449 955 ft 117 kts 55°
2026-04-15 12:23 35.40947 25.21270 968 ft 120 kts 55°
2026-04-15 12:23 35.41421 25.22158 980 ft 130 kts 64°
2026-04-15 12:24 35.41857 25.23220 984 ft 144 kts 64°
2026-04-15 12:24 35.42327 25.24361 976 ft 155 kts 64°
2026-04-15 12:24 35.42827 25.25581 967 ft 163 kts 64°
2026-04-15 12:24 35.43230 25.26916 954 ft 168 kts 88°
2026-04-15 12:25 35.43068 25.28340 965 ft 170 kts 98°
2026-04-15 12:25 35.42873 25.29789 954 ft 172 kts 98°
2026-04-15 12:25 35.42671 25.31220 943 ft 164 kts 98°
2026-04-15 12:25 35.42484 25.32560 940 ft 155 kts 98°
2026-04-15 12:26 35.42300 25.33854 947 ft 151 kts 98°
2026-04-15 12:26 35.42116 25.35139 957 ft 153 kts 98°
2026-04-15 12:26 35.41928 25.36456 957 ft 155 kts 98°
2026-04-15 12:26 35.41740 25.37777 957 ft 157 kts 98°
2026-04-15 12:27 35.41552 25.39111 956 ft 158 kts 98°
2026-04-15 12:27 35.41363 25.40458 957 ft 159 kts 98°
2026-04-15 12:27 35.41170 25.41841 963 ft 164 kts 98°
2026-04-15 12:27 35.40969 25.43267 981 ft 168 kts 98°
2026-04-15 12:28 35.40772 25.44646 1219 ft 158 kts 98°
2026-04-15 12:28 35.40589 25.45928 1434 ft 152 kts 98°
2026-04-15 12:28 35.40402 25.47246 1461 ft 158 kts 98°
2026-04-15 12:28 35.40204 25.48639 1462 ft 164 kts 98°
2026-04-15 12:29 35.40008 25.50030 1462 ft 168 kts 98°
2026-04-15 12:29 35.39805 25.51465 1458 ft 172 kts 98°
2026-04-15 12:29 35.39599 25.52940 1460 ft 173 kts 98°
2026-04-15 12:29 35.39394 25.54419 1457 ft 174 kts 98°
2026-04-15 12:30 35.39188 25.55893 1455 ft 174 kts 98°
2026-04-15 12:30 35.38982 25.57368 1450 ft 175 kts 98°
2026-04-15 12:30 35.38777 25.58845 1449 ft 175 kts 98°
2026-04-15 12:30 35.38575 25.60309 1448 ft 175 kts 98°
2026-04-15 12:31 35.38372 25.61788 1449 ft 175 kts 98°
2026-04-15 12:31 35.38166 25.63289 1444 ft 175 kts 98°
2026-04-15 12:31 35.37965 25.64754 1444 ft 175 kts 98°
2026-04-15 12:31 35.37757 25.66233 1445 ft 175 kts 99°
2026-04-15 12:32 35.37548 25.67714 1446 ft 175 kts 99°
2026-04-15 12:32 35.37336 25.69203 1446 ft 175 kts 99°
2026-04-15 12:32 35.37125 25.70680 1447 ft 175 kts 99°
2026-04-15 12:32 35.36914 25.72158 1446 ft 175 kts 99°
2026-04-15 12:33 35.36701 25.73646 1445 ft 175 kts 99°
2026-04-15 12:33 35.36464 25.75106 1440 ft 175 kts 108°
2026-04-15 12:33 35.35634 25.76186 1442 ft 180 kts 153°
2026-04-15 12:33 35.34253 25.76733 1449 ft 181 kts 158°
2026-04-15 12:34 35.33001 25.77217 1451 ft 181 kts 159°
2026-04-15 12:34 35.31793 25.77696 1441 ft 181 kts 156°
2026-04-15 12:34 35.30611 25.78271 1444 ft 181 kts 155°
2026-04-15 12:34 35.29443 25.78832 1442 ft 181 kts 155°
2026-04-15 12:35 35.28274 25.79391 1440 ft 181 kts 155°
2026-04-15 12:35 35.27100 25.79950 1439 ft 181 kts 155°
2026-04-15 12:35 35.25910 25.80511 1437 ft 181 kts 155°
2026-04-15 12:35 35.24732 25.81068 1436 ft 181 kts 155°
2026-04-15 12:36 35.23598 25.81745 1437 ft 178 kts 145°
2026-04-15 12:36 35.22529 25.82515 1438 ft 178 kts 146°
2026-04-15 12:36 35.21449 25.83293 1438 ft 178 kts 146°
2026-04-15 12:36 35.20357 25.84078 1438 ft 179 kts 147°
2026-04-15 12:37 35.19139 25.84463 1433 ft 185 kts 178°
2026-04-15 12:37 35.17889 25.84011 1439 ft 190 kts 208°
2026-04-15 12:37 35.16954 25.82863 1440 ft 194 kts 238°
2026-04-15 12:37 35.16566 25.81259 1442 ft 196 kts 269°
2026-04-15 12:38 35.16840 25.79650 1444 ft 194 kts 298°
2026-04-15 12:38 35.17685 25.78414 1443 ft 190 kts 328°
2026-04-15 12:38 35.18898 25.77836 1442 ft 183 kts 358°
2026-04-15 12:38 35.20123 25.78056 1443 ft 177 kts 27°
2026-04-15 12:39 35.21061 25.78984 1448 ft 173 kts 57°
2026-04-15 12:39 35.21462 25.80374 1447 ft 171 kts 84°
2026-04-15 12:39 35.21628 25.81808 1443 ft 172 kts 83°
2026-04-15 12:39 35.21747 25.83278 1439 ft 173 kts 84°
2026-04-15 12:40 35.21867 25.84746 1437 ft 174 kts 84°
2026-04-15 12:40 35.21986 25.86224 1439 ft 174 kts 85°
2026-04-15 12:40 35.22109 25.87707 1436 ft 173 kts 84°
2026-04-15 12:40 35.22228 25.89167 1432 ft 171 kts 84°
2026-04-15 12:41 35.22346 25.90615 1433 ft 170 kts 84°
2026-04-15 12:41 35.22465 25.92046 1433 ft 169 kts 84°
2026-04-15 12:41 35.22582 25.93474 1437 ft 169 kts 84°
2026-04-15 12:41 35.22700 25.94943 1444 ft 176 kts 84°
2026-04-15 12:42 35.22819 25.96478 1445 ft 182 kts 84°
2026-04-15 12:42 35.22939 25.98030 1442 ft 186 kts 85°
2026-04-15 12:42 35.23066 25.99624 1442 ft 184 kts 84°
2026-04-15 12:42 35.23194 26.01162 1439 ft 181 kts 84°
2026-04-15 12:43 35.23315 26.02693 1429 ft 177 kts 84°
2026-04-15 12:43 35.23523 26.04166 1418 ft 173 kts 66°
2026-04-15 12:43 35.24214 26.05356 1436 ft 170 kts 55°
2026-04-15 12:43 35.24915 26.06513 1435 ft 168 kts 55°
2026-04-15 12:44 35.25621 26.07655 1435 ft 167 kts 56°
2026-04-15 12:44 35.26308 26.08757 1424 ft 156 kts 55°
2026-04-15 12:44 35.26953 26.09785 1415 ft 143 kts 55°
2026-04-15 12:44 35.27557 26.10743 1241 ft 144 kts 55°
2026-04-15 12:45 35.28174 26.11735 1046 ft 146 kts 55°
2026-04-15 12:45 35.28658 26.12792 927 ft 140 kts 82°
2026-04-15 12:45 35.28397 26.13865 938 ft 131 kts 130°
2026-04-15 12:45 35.27674 26.14469 961 ft 121 kts 144°
2026-04-15 12:46 35.26973 26.14968 950 ft 107 kts 144°
2026-04-15 12:46 35.26365 26.15392 893 ft 89 kts 144°
2026-04-15 12:46 35.25845 26.15737 787 ft 82 kts 144°
2026-04-15 12:46 35.25236 26.16019 476 ft 97 kts 173°
2026-04-15 12:47 35.24674 26.15539 352 ft 106 kts 233°
2026-04-15 12:47 35.24404 26.14678 470 ft 111 kts 255°
2026-04-15 12:47 35.24166 26.13765 495 ft 109 kts 240°
2026-04-15 12:47 35.23697 26.13063 556 ft 111 kts 223°
2026-04-15 12:48 35.23147 26.12343 563 ft 113 kts 225°
2026-04-15 12:48 35.22647 26.11660 388 ft 103 kts 228°
2026-04-15 12:48 35.22184 26.10964 296 ft 103 kts 224°
2026-04-15 12:48 35.21801 26.10402 323 ft 53 kts 232°
2026-04-15 12:49 35.21606 26.10101 338 ft 35 kts 239°
2026-04-15 12:49 35.21616 26.09928 341 ft 13 kts 276°
2026-04-15 12:49 35.21619 26.09899 341 ft 0 kts 278°
2026-04-15 12:49 35.21650 26.09885 341 ft 17 kts
2026-04-15 12:50 35.21697 26.09887 340 ft 0 kts